Voltar ao catálogo

COSMOS 1461

AtivoNavegaçãoVLEO
NORAD 14064·PAYLOAD·🇷🇺 Russia

Lançado May 7, 1983 de Baikonur Cosmodrome

Loading…

Próximas Passagens (próximas 24 horas)

TLE

AtualizadoSource: Space-Track

Época: Sep 14, 2026, 08:04 UTC

1 14064U 83044A   26257.33666302  .00018050  00000-0  40741-3 0  9998
2 14064  64.9837 113.9430 0023531 166.8255 193.3505 15.43032121230881

Acompanhe COSMOS 1461 em tempo real com AllMySat

Download on the App Store